Location: Unspecified
(44.4377°N, 88.0525°W)
Time: 23:22:59
(UTC-05:00)

Resurs 1-4 Rocket - Visible Passes

Search period start: 30 April 2017 00:00
Search period end: 10 May 2017 00:00
Orbit: 799 x 815 km, 98.5° (Epoch: 29 April)

Date Brightness Start Highest point End Pass type
(mag) Time Alt. Az. Time Alt. Az. Time Alt. Az.
30 Apr 4.2 02:05:19 10° NE 02:08:43 17° E 02:10:31 15° ESE visible
30 Apr 2.1 03:43:48 10° N 03:49:01 65° WNW 03:51:36 30° SW visible
01 May 2.1 03:19:12 10° NNE 03:24:29 78° ESE 03:26:49 35° S visible
01 May 3.9 05:00:32 10° NNW 05:03:41 16° WNW 05:06:51 10° W visible
02 May 2.8 02:54:46 10° NNE 02:59:52 47° E 03:02:02 30° SSE visible
02 May 3.4 04:35:12 10° N 04:39:25 25° WNW 04:43:08 12° WSW visible
03 May 3.6 02:30:35 10° NE 02:35:09 29° E 02:37:15 22° SE visible
03 May 2.8 04:10:12 10° N 04:15:04 39° WNW 04:18:20 19° SW visible
04 May 4.2 02:06:49 10° NE 02:10:21 18° E 02:12:29 14° ESE visible
04 May 2.2 03:45:25 10° N 03:50:37 63° WNW 03:53:34 26° SW visible
05 May 4.6 01:44:43 10° ENE 01:45:27 10° E 01:46:12 10° E visible
05 May 2.1 03:20:47 10° NNE 03:26:05 81° ESE 03:28:47 30° S visible
05 May 3.9 05:02:12 10° NNW 05:05:16 16° WNW 05:08:19 10° W visible
06 May 2.7 02:56:21 10° NNE 03:01:29 49° E 03:04:00 28° SSE visible
06 May 3.4 04:36:50 10° N 04:41:00 24° WNW 04:45:05 10° WSW visible
07 May 3.5 02:32:08 10° NE 02:36:47 30° E 02:39:12 21° SE visible
07 May 2.8 04:11:49 10° N 04:16:40 38° WNW 04:20:18 16° SW visible
08 May 4.2 02:08:20 10° NE 02:11:59 19° E 02:14:24 14° ESE visible
08 May 2.2 03:47:01 10° N 03:52:13 61° WNW 03:55:30 23° SW visible
09 May 4.6 01:45:48 10° ENE 01:47:05 11° E 01:48:23 10° E visible
09 May 2.1 03:22:23 10° NNE 03:27:42 84° ESE 03:30:42 27° S visible
